Detroit, MI

7:59 AM EDT on July 29, 2017 (GMT -0400)
Detroit City

Weather History for KDET - February, 2014

Change the Weather History Date:

Wednesday, February 5, 2014

  Actual Average Record
Temperature  
Mean Temperature 18 °F -  
Max Temperature 27 °F 29 °F 51 °F (1962)
Min Temperature 6 °F 17 °F -2 °F (2007)
Degree Days  
Heating Degree Days 46    
Moisture  
Dew Point 15 °F    
Average Humidity 76    
Maximum Humidity 86    
Minimum Humidity 60    
Precipitation  
Precipitation 0.19 in - - ()
Sea Level Pressure  
Sea Level Pressure 30.06 in    
Wind  
Wind Speed 13 mph (NNE)    
Max Wind Speed 24 mph    
Max Gust Speed 33 mph    
Visibility 4 miles    
Events Fog , Rain , Snow    
Averages and records for this station are not official NWS values.
T = Trace of Precipitation, MM = Missing Value Source: NWS Daily Summary

Daily Weather History Graph

Daily Weather History Graph

Search for Another Location

Airport or City:

Trip Planner

Search our weather history database for the weather conditions in past years. The results will help you decide how hot, cold, wet, or windy it might be!

Date:

Astronomy

Feb. 05, 2014 Rise Set
Actual Time 7:41 AM EST 5:51 PM EST
Civil Twilight 7:11 AM EST 6:20 PM EST
Nautical Twilight 6:38 AM EST 6:54 PM EST
Astronomical Twilight 6:05 AM EST 7:27 PM EST
Moon 10:46 AM EST (2/5) No Moon Set
Length of Visible Light 11h 09m
Length of Day
10h 10m
Waxing Crescent, 39% of the Moon is Illuminated
Feb 5
Waxing Crescent
Feb 6
First Quarter
Feb 14
Full
Feb 22
Last Quarter
Mar 1
New

Hourly Weather History & Observations

Time (EST) Temp. Windchill Dew Point Humidity Pressure Visibility Wind Dir Wind Speed Gust Speed Precip Events Conditions
12:53 AM 21.0 °F 9.9 °F 15.1 °F 78% 30.13 in 3.0 mi NE 10.4 mph - 0.00 in Snow Light Snow
1:21 AM 21.2 °F 10.1 °F 15.8 °F 80% 30.09 in 2.5 mi NE 10.4 mph - 0.00 in Snow Light Snow
1:33 AM 21.2 °F 9.5 °F 15.8 °F 80% 30.09 in 1.5 mi NE 11.5 mph - 0.00 in Snow Light Snow
1:53 AM 21.0 °F 8.6 °F 16.0 °F 81% 30.09 in 1.8 mi NE 12.7 mph - 0.00 in Snow Light Snow
2:36 AM 21.2 °F 10.1 °F 15.8 °F 80% 30.06 in 1.2 mi NNE 10.4 mph - 0.02 in Snow Light Snow
2:53 AM 21.0 °F 8.6 °F 16.0 °F 81% 30.08 in 1.2 mi NE 12.7 mph - 0.03 in Snow Light Snow
3:27 AM 21.2 °F 8.9 °F 15.8 °F 80% 30.04 in 1.2 mi NE 12.7 mph - 0.00 in Snow Light Snow
3:53 AM 21.0 °F 8.6 °F 16.0 °F 81% 30.04 in 1.5 mi NNE 12.7 mph 23.0 mph 0.01 in Snow Light Snow
4:18 AM 21.2 °F 7.8 °F 15.8 °F 80% 29.99 in 2.0 mi NE 15.0 mph 19.6 mph 0.01 in Snow Light Snow
4:25 AM 21.2 °F 8.3 °F 15.8 °F 80% 29.98 in 3.0 mi NE 13.8 mph 20.7 mph 0.01 in Snow Light Snow
4:53 AM 21.9 °F 8.2 °F 16.0 °F 78% 29.99 in 6.0 mi NNE 16.1 mph - 0.01 in   Haze
5:20 AM 21.2 °F 7.3 °F 15.8 °F 80% 29.92 in 4.0 mi NNE 16.1 mph 25.3 mph 0.00 in Rain Light Freezing Rain
5:34 AM 21.2 °F 6.8 °F 17.6 °F 86% 29.90 in 3.0 mi NNE 17.3 mph 27.6 mph 0.00 in Snow Light Snow
5:44 AM 21.2 °F 7.8 °F 17.6 °F 86% 29.90 in 2.5 mi NNE 15.0 mph 28.8 mph 0.00 in Snow Light Snow
5:53 AM 21.9 °F 8.2 °F 17.1 °F 82% 29.91 in 2.0 mi NNE 16.1 mph 24.2 mph 0.01 in Snow Light Snow
6:06 AM 21.2 °F 6.8 °F 17.6 °F 86% 29.87 in 1.5 mi NNE 17.3 mph 26.5 mph 0.00 in Snow Light Snow
6:19 AM 21.2 °F 7.3 °F 17.6 °F 86% 29.87 in 2.0 mi NNE 16.1 mph 27.6 mph 0.00 in Snow Light Snow
6:53 AM 21.9 °F 9.8 °F 17.1 °F 82% 29.93 in 3.0 mi NNE 12.7 mph - 0.00 in Snow Light Snow
7:07 AM 21.2 °F 7.8 °F 17.6 °F 86% 29.88 in 1.8 mi North 15.0 mph 20.7 mph 0.01 in Snow Light Snow
7:15 AM 21.2 °F 6.8 °F 17.6 °F 86% 29.87 in 1.2 mi North 17.3 mph 23.0 mph 0.01 in Snow Light Snow
7:53 AM 21.9 °F 9.2 °F 18.0 °F 85% 29.93 in 1.0 mi NNE 13.8 mph 24.2 mph 0.03 in Snow Light Snow
8:13 AM 21.2 °F 7.3 °F 17.6 °F 86% 29.89 in 0.8 mi NNE 16.1 mph 26.5 mph 0.00 in Snow Light Snow
8:53 AM 21.9 °F 8.7 °F 18.0 °F 85% 29.91 in 0.2 mi NNE 15.0 mph 27.6 mph 0.03 in Fog Light Freezing Fog
9:40 AM 21.2 °F 7.3 °F 17.6 °F 86% 29.89 in 0.5 mi North 16.1 mph 23.0 mph 0.04 in Fog Light Freezing Fog
9:53 AM 21.9 °F 9.2 °F 18.0 °F 85% 29.93 in 0.5 mi North 13.8 mph 19.6 mph 0.04 in Fog , Snow Snow
10:05 AM 23.0 °F 11.1 °F 17.6 °F 80% 29.91 in 0.5 mi North 12.7 mph 24.2 mph 0.01 in Snow Snow
10:53 AM 23.0 °F 9.6 °F 18.0 °F 81% 29.98 in 0.8 mi North 16.1 mph 21.9 mph 0.02 in Snow Light Snow
11:06 AM 23.0 °F 10.6 °F 17.6 °F 80% 29.95 in 0.8 mi North 13.8 mph - 0.00 in Snow Light Snow
11:53 AM 24.1 °F 12.0 °F 18.0 °F 77% 29.99 in 0.8 mi North 13.8 mph 25.3 mph 0.01 in Snow Light Snow
12:02 PM 24.8 °F 11.5 °F 17.6 °F 74% 29.97 in 1.0 mi North 17.3 mph 25.3 mph 0.00 in Snow Light Snow
12:16 PM 24.8 °F 12.4 °F 17.6 °F 74% 29.97 in 1.2 mi North 15.0 mph 23.0 mph 0.00 in Snow Light Snow
12:53 PM 25.0 °F 13.1 °F 19.0 °F 78% 30.02 in 1.5 mi North 13.8 mph 26.5 mph 0.00 in Snow Light Snow
1:05 PM 24.8 °F 12.4 °F 19.4 °F 80% 30.00 in 2.0 mi North 15.0 mph 24.2 mph 0.00 in Snow Light Snow
1:23 PM 26.6 °F 14.7 °F 19.4 °F 74% 30.00 in 4.0 mi North 15.0 mph 23.0 mph 0.00 in Snow Light Snow
1:53 PM 27.0 °F 12.2 °F 17.1 °F 66% 30.04 in 4.0 mi North 24.2 mph 33.4 mph 0.00 in   Overcast
2:29 PM 26.6 °F 13.8 °F 17.6 °F 69% 30.04 in 7.0 mi North 17.3 mph 25.3 mph N/A   Mostly Cloudy
2:53 PM 26.1 °F 13.1 °F 16.0 °F 66% 30.09 in 10.0 mi North 17.3 mph 26.5 mph N/A   Overcast
3:53 PM 24.1 °F 12.5 °F 12.9 °F 62% 30.14 in 10.0 mi North 12.7 mph 25.3 mph N/A   Mostly Cloudy
4:53 PM 21.9 °F 9.2 °F 10.0 °F 60% 30.17 in 10.0 mi North 13.8 mph 23.0 mph N/A   Mostly Cloudy
5:18 PM 21.2 °F 8.9 °F 10.4 °F 63% 30.16 in 10.0 mi North 12.7 mph 20.7 mph N/A   Scattered Clouds
5:29 PM 21.2 °F 9.5 °F 10.4 °F 63% 30.18 in 10.0 mi North 11.5 mph 20.7 mph N/A   Mostly Cloudy
5:53 PM 21.0 °F 7.6 °F 10.0 °F 63% 30.23 in 10.0 mi North 15.0 mph 20.7 mph N/A   Overcast
6:53 PM 19.9 °F 9.3 °F 8.1 °F 60% 30.28 in 10.0 mi North 9.2 mph - 0.00 in   Overcast
7:44 PM 17.6 °F 8.2 °F 6.8 °F 63% 30.28 in 10.0 mi North 6.9 mph - N/A   Scattered Clouds
7:53 PM 17.1 °F 7.6 °F 6.1 °F 62% 31.06 in 10.0 mi North 6.9 mph - N/A   Partly Cloudy
8:53 PM 16.0 °F 8.8 °F 5.0 °F 62% 30.34 in 10.0 mi NNW 4.6 mph - N/A   Clear
9:53 PM 12.9 °F - 3.9 °F 67% 30.37 in 10.0 mi Calm Calm - N/A   Clear
10:53 PM 10.0 °F - 3.0 °F 73% 30.37 in 10.0 mi Calm Calm - N/A   Clear
11:53 PM 6.1 °F - -0.0 °F 76% 30.38 in 10.0 mi Calm Calm - N/A   Clear